TimeEST,TemperatureF,Dew PointF,Humidity,Sea Level PressureIn,VisibilityMPH,Wind Direction,Wind SpeedMPH,Gust SpeedMPH,PrecipitationIn,Events,Conditions,WindDirDegrees,DateUTC
12:52 AM,39.0,35.1,86,30.24,10.0,Calm,Calm,-,N/A,,Clear,0,2012-11-10 05:52:00
1:52 AM,37.9,35.1,89,30.25,10.0,Calm,Calm,-,N/A,,Clear,0,2012-11-10 06:52:00
2:52 AM,39.0,35.1,86,30.26,10.0,Calm,Calm,-,N/A,,Clear,0,2012-11-10 07:52:00
3:52 AM,37.0,34.0,89,30.26,10.0,Calm,Calm,-,N/A,,Clear,0,2012-11-10 08:52:00
4:52 AM,36.0,34.0,93,30.28,10.0,Calm,Calm,-,N/A,,Clear,0,2012-11-10 09:52:00
5:52 AM,36.0,33.1,89,30.28,10.0,Calm,Calm,-,N/A,,Clear,0,2012-11-10 10:52:00
6:52 AM,36.0,33.1,89,30.31,10.0,Calm,Calm,-,N/A,,Partly Cloudy,0,2012-11-10 11:52:00
7:52 AM,42.1,37.9,85,30.35,10.0,Calm,Calm,-,N/A,,Partly Cloudy,0,2012-11-10 12:52:00
8:52 AM,53.1,41.0,64,30.34,10.0,Calm,Calm,-,N/A,,Partly Cloudy,0,2012-11-10 13:52:00
9:52 AM,55.0,43.0,64,30.35,10.0,East,6.9,-,N/A,,Partly Cloudy,100,2012-11-10 14:52:00
10:52 AM,55.0,46.0,72,30.34,10.0,SE,10.4,-,N/A,,Scattered Clouds,130,2012-11-10 15:52:00
11:52 AM,57.9,46.0,65,30.32,10.0,ESE,9.2,-,N/A,,Scattered Clouds,110,2012-11-10 16:52:00
12:52 PM,57.9,43.0,58,30.30,10.0,SE,10.4,-,N/A,,Scattered Clouds,130,2012-11-10 17:52:00
1:52 PM,57.0,45.0,64,30.29,10.0,ESE,10.4,-,N/A,,Scattered Clouds,120,2012-11-10 18:52:00
2:52 PM,57.0,43.0,59,30.29,10.0,ESE,9.2,-,N/A,,Mostly Cloudy,120,2012-11-10 19:52:00
3:52 PM,57.0,44.1,62,30.30,10.0,ESE,6.9,-,N/A,,Mostly Cloudy,110,2012-11-10 20:52:00
4:52 PM,54.0,45.0,72,30.31,10.0,ESE,4.6,-,N/A,,Mostly Cloudy,120,2012-11-10 21:52:00
5:52 PM,55.9,39.0,53,30.33,10.0,SE,6.9,-,N/A,,Mostly Cloudy,140,2012-11-10 22:52:00
6:52 PM,55.0,39.0,55,30.35,10.0,SE,5.8,-,N/A,,Clear,140,2012-11-10 23:52:00
7:52 PM,53.1,46.0,77,30.35,10.0,ESE,5.8,-,N/A,,Clear,120,2012-11-11 00:52:00
8:52 PM,52.0,42.1,69,30.36,10.0,SE,4.6,-,N/A,,Clear,140,2012-11-11 01:52:00
9:52 PM,51.1,42.1,71,30.37,10.0,SE,4.6,-,N/A,,Clear,140,2012-11-11 02:52:00
10:52 PM,52.0,43.0,71,30.38,10.0,SE,4.6,-,N/A,,Clear,140,2012-11-11 03:52:00
11:52 PM,51.1,42.1,71,30.38,10.0,Calm,Calm,-,N/A,,Clear,0,2012-11-11 04:52:00